CZ-6A DEB, 54447

Orbit data source: Space-Track

CZ-6A DEB, 54447 is space debris in SSO originally from a launch on Fri, 11 Nov 2022 UTC launched from the Taiyaun Space Center, China (TSC). Debris objects in space refer to the collection of defunct objects orbiting the Earth. Examples of debris include non-operational satellites, rocket bodies, and fragments generated from explosions, collisions, or faulty payload assembly.

Loading next visibility...
Identifier
54447, 2022-151FX
Orbit
SSO
Country
Flag of CNCN / PRC
Related business
Manufacturer
SAST
Mission
Spacecraft
Bus & Motor
Unknown
Mass
Unknown
Launch date (UTC)
2022-11-11 (3 years ago)
Launch vehicle
Unknown
Launch site
Taiyaun Space Center, China (TSC)
Object type
Payload
Rocket body
Debris
Shape & HBR
Unknown shape, 0.1 m
Radar Cross Section
Small (<0.1 m²)

Expand to show TLE details & history
Last TLE update: 12 hours ago

TLE from 12 hours ago
0 CZ-6A DEB
1 54447U 22151FX  25353.84441382  .00000402  00000-0  35398-3 0  9994
2 54447  98.9452 313.4616 0168325 268.5834  89.6035 13.84744371156586
Epoch: 2025-12-19T20:15Z
TLE epoch observation values (Epoch: 2025-12-19T20:15:57.354Z)
Latitude
-0.00002°
Longitude
-79.20711°
Altitude
951.189 km
Speed
7.376 km/s
True Right ascension
20h 53m 50s
True Declination
0° 00' 00"
Sunlit
Object was in daylight at epoch
Visualization orbit readout
Latitude
Unknown
Longitude
Unknown
Altitude
Unknown
Speed
Unknown
Apparent Right ascension
Unknown
Apparent Declination
Unknown
Sunlit
N/A
Visualization observer readout
Local Sidereal Time
06:45:49
Azimuth
Unknown
Elevation
Unknown
Doppler factor
Unknown
Orbital elements
Apogee altitude
1,067.578 km
Perigee altitude
821.068 km
Semi-major axis
7,322.46 km
Eccentricity
0.01683
Inclination
98.9452°
RAAN
313.4616°
Arg. of periapsis
268.5834°
True anomaly
91.53223°
Mean anomaly
89.6035°
Eccentric anomaly
90.56788°
Mean motion
3.46384 °/min
Orbital period
103.93 mins
BSTAR
0.00035398
Loading maneuver chart data...
Computing Atmospheric mass density...
Loading historical data...
Loading historical data...
Loading historical data...
Loading historical data...
Loading historical data...
Loading historical data...
Loading historical data...

Documentation

Showing up to 5 results
|